Location: Ethel Rock
(53.4667°N, 4.5667°W)
Time: 05:18:24
(UTC+00:00)

ERS-2 - Pass Details

Date: 24 October 2020
Orbit: 493 x 498 km, 98.6° (Epoch: 25 November)

Event Time Altitude Azimuth Distance (km) Brightness Sun altitude
Rises 06:00:46 0° 215° (SW) 2,574 5.5 -9.8°
Reaches altitude 10° 06:04:04 10° 248° (WSW) 1,697 4.3 -9.3°
Enters shadow 06:04:42 11° 258° (WSW) 1,620 4.1 -9.2°
